Home   Weather   Farsund   Past weeks

Flag for Norway Past Weather in Farsund, Norway — Yesterday and Last 2 Weeks

Now
61 °F

Cool.


Feels Like: 61 °F
Forecast: 56 / 61 °F
Wind: 7 mph from Southwest

Location: Lista Fyr

Current Time: Sep 26, 2016 at 2:29:06 AM

Latest Report: Sep 26, 2016 at 2:00 AM


Visibility: N/A

Pressure: 30.00 "Hg

Humidity: 87%

Dew Point: 57 °F

Location of FarsundLocation

Past Weather in Farsund — Graph

°F

Farsund Temperature Yesterday

Maximum temperature yesterday: 67 °F (at 2:00 PM)
Minimum temperature yesterday: 61 °F (at 1:00 AM)
Average temperature yesterday: 64 °F

High & Low Weather Summary for the Past Weeks

 TemperatureHumidityPressure
High75 °F (Sep 14, 12:00 PM)100% (Sep 11, 1:00 AM)30.24 "Hg (Sep 11, 1:00 AM)
Low51 °F (Sep 19, 7:00 AM)60% (Sep 15, 5:00 PM)29.70 "Hg (Sep 11, 4:00 AM)
Average61 °F86%30.08 "Hg
* Reported Sep 11 1:00 AM — Sep 26 1:00 AM, Farsund, Weather by CustomWeather, © 2016

Note: Actual official high and low records may vary slightly from our data, if they occured in-between our weather recording intervals... More about our weather records

Advertising

Farsund Weather History for the Previous 24 Hours

Scroll right to see more
 ConditionsComfort  
Time TempWeatherWind HumidityBarometerVisibility
1:00 AM
Mon, Sep 26
60 °FCool.6 mph88%29.98 "HgN/A
12:00 AM60 °FCool.7 mph90%29.96 "HgN/A
11:00 PM
Sun, Sep 25
62 °FMild.12 mph93%29.94 "HgN/A
10:00 PM64 °FMild.12 mph87%29.94 "HgN/A
9:00 PM63 °FMild.10 mph83%29.93 "HgN/A
8:00 PM63 °FPassing clouds.12 mph80%29.94 "Hg12 mi
7:00 PM64 °FMild.13 mph73%29.94 "HgN/A
6:00 PM65 °FMild.13 mph70%29.93 "HgN/A
5:00 PM67 °FMild.12 mph72%29.94 "HgN/A
4:00 PM66 °FMild.13 mph72%29.94 "HgN/A
3:00 PM67 °FMild.14 mph68%29.95 "HgN/A
2:00 PM67 °FPassing clouds.12 mph71%29.96 "Hg11 mi
1:00 PM67 °FMild.10 mph75%29.97 "HgN/A
12:00 PM66 °FMild.10 mph78%29.98 "HgN/A
11:00 AM65 °FPassing clouds.12 mph82%29.97 "Hg8 mi
10:00 AM64 °FMild.13 mph85%29.97 "HgN/A
9:00 AM63 °FMild.13 mph88%29.97 "HgN/A
8:00 AM63 °FScattered clouds.14 mph88%29.97 "Hg9 mi
7:00 AM62 °FCool.12 mph90%29.97 "HgN/A
6:00 AM62 °FCool.10 mph89%29.98 "HgN/A
5:00 AM62 °FCool.10 mph88%29.98 "HgN/A
4:00 AM62 °FCool.10 mph87%29.99 "HgN/A
3:00 AM62 °FCool.12 mph87%30.00 "HgN/A
2:00 AM61 °FCool.9 mph88%30.01 "HgN/A
Weather by CustomWeather, © 2016

See weather overviewHow to use our weather pages